Weather History for KTBX - May, 2013

Change the Weather History Date:

Monday, May 13, 2013

  Actual Average (KWRL) Record (KWRL)
Temperature  
Mean Temperature 67 °F 54 °F  
Max Temperature 75 °F 69 °F 92 °F (1988)
Min Temperature 59 °F 40 °F 26 °F (2014)
Degree Days  
Heating Degree Days 0 11  
Month to date heating degree days 165  
Since 1 July heating degree days 7632  
Cooling Degree Days 2 0  
Month to date cooling degree days 0  
Year to date cooling degree days 1  
Growing Degree Days 17 (Base 50)    
Moisture  
Dew Point 28 °F    
Average Humidity 24    
Maximum Humidity 39    
Minimum Humidity 14    
Precipitation  
Precipitation 0.00 in 0.05 in 0.14 in (1990)
Month to date precipitation 0.57  
Year to date precipitation 2.31  
Sea Level Pressure  
Sea Level Pressure 30.29 in    
Wind  
Wind Speed 9 mph (South)    
Max Wind Speed 26 mph    
Max Gust Speed 33 mph    
Visibility 10 miles    
Events      
T = Trace of Precipitation, MM = Missing Value Source: NWS Daily Summary

Daily Weather History Graph

Daily Weather History Graph

Search for Another Location

Airport or City:

Trip Planner

Search our weather history database for the weather conditions in past years. The results will help you decide how hot, cold, wet, or windy it might be!

Date:

Astronomy

May. 13, 2013 Rise Set
Actual Time 5:50 AM MDT 8:29 PM MDT
Civil Twilight 5:17 AM MDT 9:01 PM MDT
Nautical Twilight 4:36 AM MDT 9:43 PM MDT
Astronomical Twilight 3:49 AM MDT 10:30 PM MDT
Moon 8:38 AM MDT (5/13) 11:40 PM MDT (5/13)
Length of Visible Light 15h 44m
Length of Day
14h 38m
Waxing Crescent, 12% of the Moon is Illuminated
May 13
Waxing Crescent
May 17
First Quarter
May 24
Full
May 31
Last Quarter
Jun 8
New

Hourly Weather History & Observations

Time (MDT) Temp. Dew Point Humidity Pressure Visibility Wind Dir Wind Speed Gust Speed Precip Events Conditions
12:15 AM 62.6 °F 30.2 °F 30% 30.34 in 10.0 mi WSW 10.4 mph - N/A   Clear
12:35 AM 62.6 °F 30.2 °F 30% 30.34 in 10.0 mi WSW 10.4 mph - N/A   Clear
12:55 AM 62.6 °F 30.2 °F 30% 30.34 in 10.0 mi South 6.9 mph - N/A   Clear
1:15 AM 62.6 °F 30.2 °F 30% 30.34 in 10.0 mi SW 10.4 mph - N/A   Clear
1:35 AM 62.6 °F 30.2 °F 30% 30.34 in 10.0 mi SW 9.2 mph - N/A   Clear
1:55 AM 62.6 °F 30.2 °F 30% 30.33 in 10.0 mi SSW 6.9 mph - N/A   Clear
2:15 AM 62.6 °F 30.2 °F 30% 30.33 in 10.0 mi Calm Calm - N/A   Scattered Clouds
2:35 AM 62.6 °F 28.4 °F 27% 30.33 in 10.0 mi WSW 6.9 mph - N/A   Clear
2:55 AM 62.6 °F 28.4 °F 27% 30.33 in 10.0 mi SSW 4.6 mph - N/A   Clear
3:15 AM 62.6 °F 28.4 °F 27% 30.33 in 10.0 mi SW 5.8 mph - N/A   Clear
3:35 AM 62.6 °F 28.4 °F 27% 30.33 in 10.0 mi WSW 6.9 mph - N/A   Clear
3:55 AM 62.6 °F 28.4 °F 27% 30.33 in 10.0 mi West 5.8 mph - N/A   Clear
4:15 AM 64.4 °F 26.6 °F 24% 30.33 in 10.0 mi West 4.6 mph - N/A   Clear
4:35 AM 64.4 °F 26.6 °F 24% 30.33 in 10.0 mi NW 3.5 mph - N/A   Clear
4:55 AM 60.8 °F 28.4 °F 29% 30.33 in 10.0 mi SSW 4.6 mph - N/A   Clear
5:15 AM 62.6 °F 28.4 °F 27% 30.33 in 10.0 mi South 3.5 mph - N/A   Clear
5:35 AM 60.8 °F 28.4 °F 29% 30.33 in 10.0 mi South 8.1 mph - N/A   Clear
5:55 AM 60.8 °F 28.4 °F 29% 30.33 in 10.0 mi SSW 8.1 mph - N/A   Clear
6:15 AM 62.6 °F 26.6 °F 26% 30.33 in 10.0 mi South 8.1 mph - N/A   Clear
6:35 AM 62.6 °F 26.6 °F 26% 30.34 in 10.0 mi SE 4.6 mph - N/A   Clear
6:55 AM 60.8 °F 28.4 °F 29% 30.34 in 10.0 mi SSE 3.5 mph - N/A   Clear
7:15 AM 60.8 °F 28.4 °F 29% 30.34 in 10.0 mi SSE 4.6 mph - N/A   Clear
7:35 AM 59.0 °F 30.2 °F 34% 30.34 in 10.0 mi SSE 5.8 mph - N/A   Clear
7:55 AM 59.0 °F 30.2 °F 34% 30.35 in 10.0 mi SE 4.6 mph - N/A   Clear
8:15 AM 60.8 °F 32.0 °F 34% 30.36 in 10.0 mi SE 5.8 mph - N/A   Clear
8:35 AM 59.0 °F 33.8 °F 39% 30.36 in 10.0 mi SSE 4.6 mph - N/A   Clear
8:55 AM 64.4 °F 32.0 °F 30% 30.36 in 10.0 mi Calm Calm - N/A   Clear
9:15 AM 62.6 °F 33.8 °F 34% 30.36 in 10.0 mi Calm Calm - N/A   Clear
9:35 AM 62.6 °F 33.8 °F 34% 30.36 in 10.0 mi Calm Calm - N/A   Clear
9:55 AM 68.0 °F 32.0 °F 26% 30.36 in 10.0 mi WNW 4.6 mph - N/A   Clear
10:15 AM 64.4 °F 35.6 °F 34% 30.37 in 10.0 mi Calm Calm - N/A   Clear
10:35 AM 68.0 °F 32.0 °F 26% 30.37 in 10.0 mi West 6.9 mph - N/A   Clear
10:55 AM 66.2 °F 32.0 °F 28% 30.36 in 10.0 mi SSW 3.5 mph - N/A   Clear
11:15 AM 64.4 °F 33.8 °F 32% 30.36 in 10.0 mi ESE 9.2 mph - N/A   Clear
11:35 AM 68.0 °F 33.8 °F 28% 30.36 in 10.0 mi SE 9.2 mph - N/A   Clear
11:55 AM 68.0 °F 32.0 °F 26% 30.36 in 10.0 mi SE 5.8 mph - N/A   Clear
12:15 PM 68.0 °F 30.2 °F 24% 30.36 in 10.0 mi SE 10.4 mph 16.1 mph N/A   Clear
12:35 PM 69.8 °F 28.4 °F 21% 30.34 in 10.0 mi SE 9.2 mph 16.1 mph N/A   Clear
12:55 PM 69.8 °F 28.4 °F 21% 30.34 in 10.0 mi SSE 9.2 mph - N/A   Clear
1:15 PM 69.8 °F 28.4 °F 21% 30.33 in 10.0 mi SE 13.8 mph 18.4 mph N/A   Clear
1:35 PM 69.8 °F 30.2 °F 23% 30.32 in 10.0 mi SE 13.8 mph 21.9 mph N/A   Clear
1:55 PM 71.6 °F 28.4 °F 20% 30.31 in 10.0 mi ESE 12.7 mph 21.9 mph N/A   Clear
2:35 PM 71.6 °F 28.4 °F 20% 30.30 in 10.0 mi SE 5.8 mph 10.4 mph N/A   Clear
2:55 PM 73.4 °F 30.2 °F 20% 30.28 in 10.0 mi SE 15.0 mph 19.6 mph N/A   Scattered Clouds
3:15 PM 71.6 °F 28.4 °F 20% 30.28 in 10.0 mi SE 9.2 mph 18.4 mph N/A   Scattered Clouds
3:35 PM 75.2 °F 24.8 °F 15% 30.26 in 10.0 mi South 20.7 mph 27.6 mph N/A   Scattered Clouds
3:55 PM 73.4 °F 23.0 °F 15% 30.26 in 10.0 mi SW 16.1 mph 28.8 mph N/A   Scattered Clouds
4:15 PM 75.2 °F 23.0 °F 14% 30.24 in 10.0 mi South 26.5 mph 33.4 mph N/A   Scattered Clouds
4:35 PM 73.4 °F 23.0 °F 15% 30.24 in 10.0 mi South 21.9 mph 27.6 mph N/A   Scattered Clouds
4:55 PM 75.2 °F 26.6 °F 17% 30.24 in 10.0 mi SW 12.7 mph 28.8 mph N/A   Scattered Clouds
5:35 PM 73.4 °F 23.0 °F 15% 30.22 in 10.0 mi SSW 19.6 mph 28.8 mph N/A   Clear
6:15 PM 73.4 °F 24.8 °F 16% 30.22 in 10.0 mi SSW 10.4 mph 19.6 mph N/A   Scattered Clouds
6:35 PM 71.6 °F 23.0 °F 16% 30.21 in 10.0 mi SSW 19.6 mph 28.8 mph N/A   Clear
6:55 PM 71.6 °F 23.0 °F 16% 30.20 in 10.0 mi South 19.6 mph 26.5 mph N/A   Clear
7:15 PM 71.6 °F 23.0 °F 16% 30.21 in 10.0 mi South 16.1 mph 24.2 mph N/A   Clear
7:35 PM 71.6 °F 24.8 °F 17% 30.21 in 10.0 mi SSW 11.5 mph - N/A   Clear
7:55 PM 69.8 °F 23.0 °F 17% 30.20 in 10.0 mi SSW 17.3 mph 23.0 mph N/A   Clear
8:15 PM 69.8 °F 23.0 °F 17% 30.20 in 10.0 mi SSW 16.1 mph - N/A   Clear
8:35 PM 68.0 °F 24.8 °F 20% 30.20 in 10.0 mi SSW 16.1 mph 20.7 mph N/A   Clear
8:55 PM 68.0 °F 24.8 °F 20% 30.20 in 10.0 mi SSW 13.8 mph - N/A   Clear
9:15 PM 68.0 °F 24.8 °F 20% 30.21 in 10.0 mi SW 11.5 mph - N/A   Clear
9:35 PM 66.2 °F 26.6 °F 23% 30.20 in 10.0 mi SSW 13.8 mph 20.7 mph N/A   Clear
9:55 PM 66.2 °F 26.6 °F 23% 30.20 in 10.0 mi SSW 17.3 mph 26.5 mph N/A   Clear
10:15 PM 66.2 °F 26.6 °F 23% 30.19 in 10.0 mi South 13.8 mph - N/A   Clear
10:35 PM 66.2 °F 24.8 °F 21% 30.19 in 10.0 mi South 13.8 mph 19.6 mph N/A   Clear
10:55 PM 66.2 °F 24.8 °F 21% 30.19 in 10.0 mi South 17.3 mph - N/A   Clear
11:15 PM 66.2 °F 23.0 °F 19% 30.18 in 10.0 mi South 20.7 mph 29.9 mph N/A   Clear
11:35 PM 66.2 °F 23.0 °F 19% 30.17 in 10.0 mi South 21.9 mph 27.6 mph N/A   Clear
11:55 PM 66.2 °F 23.0 °F 19% 30.17 in 10.0 mi South 18.4 mph 28.8 mph N/A   Clear